| time (UTC) | temp C | wind direction | speed KPH | gust KPH | rain 1hr cm | rain 24hr cm | rain mn cm | humidity % | barometer mb |
| 20260505053813 | 10 | 113 | 1.6 | 1.6 | 0.00 | 0.00 | 0.00 | 92 | 1012.3 |
| 20260505053310 | 11 | 126 | 3.2 | 3.2 | 0.00 | 0.00 | 0.00 | 91 | 1012.2 |
| 20260505052806 | 11 | 38 | 0.0 | 3.2 | 0.00 | 0.00 | 0.00 | 91 | 1012.1 |
| 20260505052304 | 11 | 89 | 0.0 | 1.6 | 0.00 | 0.00 | 0.00 | 90 | 1012.0 |
| 20260505051800 | 11 | 107 | 1.6 | 4.8 | 0.00 | 0.00 | 0.00 | 90 | 1012.0 |
| 20260505051258 | 11 | 22 | 0.0 | 3.2 | 0.00 | 0.00 | 0.00 | 89 | 1012.1 |
| 20260505050756 | 11 | 116 | 3.2 | 3.2 | 0.00 | 0.00 | 0.00 | 89 | 1011.9 |
| 20260505050254 | 11 | 99 | 3.2 | 3.2 | 0.00 | 0.00 | 0.00 | 88 | 1012.0 |
| 20260505041728 | 12 | 63 | 3.2 | 4.8 | 0.00 | 0.00 | 0.00 | 83 | 1011.5 |
| 20260505041226 | 13 | 57 | 3.2 | 3.2 | 0.00 | 0.00 | 0.00 | 83 | 1011.2 |
| 20260505040723 | 13 | 43 | 3.2 | 3.2 | 0.00 | 0.00 | 0.00 | 82 | 1011.4 |
| 20260505040220 | 13 | 34 | 1.6 | 3.2 | 0.00 | 0.00 | 0.00 | 81 | 1011.4 |
| 20260505035717 | 13 | 36 | 0.0 | 4.8 | 0.00 | 0.00 | 0.00 | 81 | 1011.6 |
| 20260505035213 | 13 | 43 | 3.2 | 3.2 | 0.00 | 0.00 | 0.00 | 82 | 1011.2 |
| 20260505034710 | 14 | 93 | 1.6 | 3.2 | 0.00 | 0.00 | 0.00 | 81 | 1011.2 |
| 20260505034207 | 14 | 63 | 3.2 | 3.2 | 0.00 | 0.00 | 0.00 | 81 | 1011.2 |
| 20260505033703 | 15 | 227 | 1.6 | 3.2 | 0.00 | 0.00 | 0.00 | 80 | 1011.2 |
| 20260505033201 | 15 | 145 | 0.0 | 1.6 | 0.00 | 0.00 | 0.00 | 80 | 1011.1 |
| 20260505032659 | 15 | 51 | 0.0 | 1.6 | 0.00 | 0.00 | 0.00 | 79 | 1011.2 |
| 20260505032155 | 15 | 243 | 0.0 | 0.0 | 0.00 | 0.00 | 0.00 | 77 | 1011.1 |
| 20260505031652 | 16 | 103 | 0.0 | 3.2 | 0.00 | 0.00 | 0.00 | 74 | 1011.1 |
| 20260505031149 | 16 | 105 | 3.2 | 6.4 | 0.00 | 0.00 | 0.00 | 71 | 1011.0 |
| 20260505030646 | 16 | 136 | 4.8 | 6.4 | 0.00 | 0.00 | 0.00 | 72 | 1011.0 |
| 20260505030141 | 17 | 44 | 0.0 | 4.8 | 0.00 | 0.00 | 0.00 | 71 | 1011.0 |
| 20260505025637 | 17 | 36 | 1.6 | 3.2 | 0.00 | 0.00 | 0.00 | 68 | 1011.1 |
| 20260505025136 | 17 | 56 | 3.2 | 3.2 | 0.00 | 0.00 | 0.00 | 67 | 1011.0 |
| 20260505024633 | 18 | 102 | 1.6 | 3.2 | 0.00 | 0.00 | 0.00 | 65 | 1011.1 |
| 20260505024130 | 18 | 48 | 1.6 | 4.8 | 0.00 | 0.00 | 0.00 | 66 | 1011.1 |
| 20260505023628 | 18 | 37 | 3.2 | 3.2 | 0.00 | 0.00 | 0.00 | 63 | 1011.0 |
| 20260505023125 | 18 | 37 | 3.2 | 4.8 | 0.00 | 0.00 | 0.00 | 64 | 1010.9 |
| 20260505022622 | 18 | 50 | 1.6 | 3.2 | 0.00 | 0.00 | 0.00 | 63 | 1011.0 |
| 20260505022119 | 19 | 9 | 3.2 | 3.2 | 0.00 | 0.00 | 0.00 | 62 | 1010.7 |
| 20260505021616 | 19 | 64 | 1.6 | 3.2 | 0.00 | 0.00 | 0.00 | 61 | 1010.8 |
| 20260505021113 | 19 | 45 | 3.2 | 3.2 | 0.00 | 0.00 | 0.00 | 61 | 1010.8 |
| 20260505020608 | 19 | 59 | 1.6 | 3.2 | 0.00 | 0.00 | 0.00 | 60 | 1011.2 |
| 20260505020105 | 20 | 42 | 3.2 | 4.8 | 0.00 | 0.00 | 0.00 | 59 | 1011.2 |
| 20260505015602 | 20 | 348 | 0.0 | 3.2 | 0.00 | 0.00 | 0.00 | 58 | 1011.1 |
| 20260505015058 | 21 | 188 | 0.0 | 6.4 | 0.00 | 0.00 | 0.00 | 59 | 1011.2 |
| 20260505014555 | 21 | 333 | 0.0 | 3.2 | 0.00 | 0.00 | 0.00 | 56 | 1011.2 |
| 20260505014052 | 20 | 40 | 3.2 | 3.2 | 0.00 | 0.00 | 0.00 | 57 | 1011.2 |
| 20260505013549 | 20 | 34 | 1.6 | 3.2 | 0.00 | 0.00 | 0.00 | 57 | 1011.2 |
| 20260505013047 | 21 | 39 | 1.6 | 3.2 | 0.00 | 0.00 | 0.00 | 55 | 1011.2 |
| 20260505012545 | 21 | 0 | 0.0 | 3.2 | 0.00 | 0.00 | 0.00 | 55 | 1011.1 |
| 20260505012042 | 21 | 2 | 0.0 | 4.8 | 0.00 | 0.00 | 0.00 | 55 | 1011.2 |
| 20260505011537 | 22 | 59 | 0.0 | 4.8 | 0.00 | 0.00 | 0.00 | 53 | 1011.5 |
| 20260505011035 | 22 | 357 | 1.6 | 4.8 | 0.00 | 0.00 | 0.00 | 54 | 1011.6 |
| 20260505010530 | 22 | 212 | 0.0 | 1.6 | 0.00 | 0.00 | 0.00 | 55 | 1011.3 |
| 20260505010027 | 21 | 233 | 3.2 | 3.2 | 0.00 | 0.00 | 0.00 | 57 | 1011.5 |
| 20260505005523 | 21 | 72 | 1.6 | 4.8 | 0.00 | 0.00 | 0.00 | 55 | 1011.5 |
| 20260505005021 | 21 | 15 | 3.2 | 4.8 | 0.00 | 0.00 | 0.00 | 56 | 1011.3 |
| 20260505004517 | 22 | 32 | 4.8 | 4.8 | 0.00 | 0.00 | 0.00 | 56 | 1011.1 |
| 20260505004014 | 21 | 111 | 9.7 | 9.7 | 0.00 | 0.00 | 0.00 | 55 | 1011.0 |
| 20260505003511 | 22 | 38 | 4.8 | 4.8 | 0.00 | 0.00 | 0.00 | 54 | 1011.0 |
| 20260505003009 | 22 | 30 | 1.6 | 3.2 | 0.00 | 0.00 | 0.00 | 54 | 1011.3 |
| 20260505002504 | 22 | 27 | 3.2 | 3.2 | 0.00 | 0.00 | 0.00 | 54 | 1011.1 |
| 20260505002003 | 22 | 45 | 4.8 | 8.0 | 0.00 | 0.00 | 0.00 | 53 | 1011.2 |
| 20260505001500 | 22 | 77 | 3.2 | 4.8 | 0.00 | 0.00 | 0.00 | 53 | 1011.1 |
| 20260505000956 | 22 | 40 | 3.2 | 6.4 | 0.00 | 0.00 | 0.00 | 54 | 1011.1 |
| 20260505000454 | 22 | 26 | 3.2 | 6.4 | 0.00 | 0.00 | 0.00 | 53 | 1011.3 |
| 20260504235951 | 22 | 79 | 4.8 | 4.8 | 0.00 | 0.00 | 0.00 | 52 | 1011.1 |
| 20260504235448 | 22 | 359 | 3.2 | 3.2 | 0.00 | 0.00 | 0.00 | 52 | 1011.4 |
| 20260504234945 | 23 | 271 | 3.2 | 4.8 | 0.00 | 0.00 | 0.00 | 55 | 1011.3 |
| 20260504234442 | 23 | 294 | 3.2 | 3.2 | 0.00 | 0.00 | 0.00 | 55 | 1011.4 |
| 20260504233938 | 23 | 331 | 1.6 | 3.2 | 0.00 | 0.00 | 0.00 | 55 | 1011.5 |
| 20260504233434 | 22 | 107 | 4.8 | 4.8 | 0.00 | 0.00 | 0.00 | 52 | 1011.4 |
| 20260504232931 | 22 | 49 | 6.4 | 8.0 | 0.00 | 0.00 | 0.00 | 51 | 1011.5 |
| 20260504232428 | 23 | 64 | 1.6 | 4.8 | 0.00 | 0.00 | 0.00 | 50 | 1011.3 |
| 20260504231925 | 23 | 340 | 3.2 | 6.4 | 0.00 | 0.00 | 0.00 | 49 | 1011.5 |
| 20260504231422 | 23 | 103 | 4.8 | 4.8 | 0.00 | 0.00 | 0.00 | 52 | 1011.3 |
| 20260504230918 | 23 | 245 | 9.7 | 9.7 | 0.00 | 0.00 | 0.00 | 48 | 1011.4 |
| 20260504230415 | 23 | 132 | 3.2 | 4.8 | 0.00 | 0.00 | 0.00 | 48 | 1011.6 |
| 20260504225914 | 23 | 142 | 0.0 | 3.2 | 0.00 | 0.00 | 0.00 | 49 | 1011.5 |
| 20260504225410 | 22 | 46 | 4.8 | 6.4 | 0.00 | 0.00 | 0.00 | 51 | 1011.6 |
| 20260504224908 | 22 | 22 | 3.2 | 6.4 | 0.00 | 0.00 | 0.00 | 51 | 1011.7 |
| 20260504224404 | 22 | 41 | 4.8 | 6.4 | 0.00 | 0.00 | 0.00 | 50 | 1011.7 |
| 20260504223902 | 22 | 231 | 8.0 | 11.3 | 0.00 | 0.00 | 0.00 | 53 | 1011.9 |
| 20260504223356 | 22 | 217 | 6.4 | 8.0 | 0.00 | 0.00 | 0.00 | 54 | 1011.6 |
| 20260504222853 | 22 | 346 | 3.2 | 11.3 | 0.00 | 0.00 | 0.00 | 53 | 1011.8 |
| 20260504222350 | 22 | 76 | 3.2 | 4.8 | 0.00 | 0.00 | 0.00 | 51 | 1011.8 |
| 20260504221849 | 22 | 343 | 4.8 | 9.7 | 0.00 | 0.00 | 0.00 | 51 | 1011.8 |
| 20260504221345 | 23 | 93 | 0.0 | 8.0 | 0.00 | 0.00 | 0.00 | 50 | 1011.8 |
| 20260504220842 | 22 | 293 | 6.4 | 9.7 | 0.00 | 0.00 | 0.00 | 53 | 1011.9 |
| 20260504220338 | 22 | 107 | 3.2 | 4.8 | 0.00 | 0.00 | 0.00 | 49 | 1011.8 |
| 20260504215836 | 23 | 329 | 3.2 | 3.2 | 0.00 | 0.00 | 0.00 | 50 | 1011.9 |
| 20260504215332 | 23 | 28 | 0.0 | 4.8 | 0.00 | 0.00 | 0.00 | 52 | 1012.0 |
| 20260504214828 | 23 | 200 | 6.4 | 8.0 | 0.00 | 0.00 | 0.00 | 50 | 1012.0 |
| 20260504214326 | 23 | 58 | 0.0 | 3.2 | 0.00 | 0.00 | 0.00 | 51 | 1012.1 |
| 20260504213822 | 22 | 30 | 6.4 | 9.7 | 0.00 | 0.00 | 0.00 | 50 | 1012.0 |
| 20260504213318 | 22 | 40 | 3.2 | 4.8 | 0.00 | 0.00 | 0.00 | 50 | 1012.1 |
| 20260504212815 | 23 | 74 | 4.8 | 6.4 | 0.00 | 0.00 | 0.00 | 48 | 1012.1 |
| 20260504212311 | 22 | 43 | 4.8 | 6.4 | 0.00 | 0.00 | 0.00 | 50 | 1012.2 |
| 20260504211809 | 22 | 54 | 3.2 | 4.8 | 0.00 | 0.00 | 0.00 | 50 | 1012.3 |
| 20260504211305 | 22 | 42 | 4.8 | 6.4 | 0.00 | 0.00 | 0.00 | 52 | 1012.4 |
| 20260504210803 | 23 | 111 | 1.6 | 4.8 | 0.00 | 0.00 | 0.00 | 50 | 1012.0 |
| 20260504210300 | 23 | 216 | 8.0 | 8.0 | 0.00 | 0.00 | 0.00 | 49 | 1012.1 |
| 20260504205757 | 22 | 92 | 4.8 | 9.7 | 0.00 | 0.00 | 0.00 | 52 | 1012.1 |
| 20260504205254 | 22 | 47 | 0.0 | 4.8 | 0.00 | 0.00 | 0.00 | 51 | 1012.1 |
| 20260504204752 | 21 | 57 | 4.8 | 6.4 | 0.00 | 0.00 | 0.00 | 50 | 1012.0 |
| 20260504204251 | 22 | 62 | 3.2 | 6.4 | 0.00 | 0.00 | 0.00 | 49 | 1012.1 |
| 20260504203750 | 22 | 47 | 4.8 | 4.8 | 0.00 | 0.00 | 0.00 | 49 | 1012.0 |
| 20260504203246 | 22 | 18 | 3.2 | 4.8 | 0.00 | 0.00 | 0.00 | 49 | 1012.1 |
| 20260504202741 | 22 | 25 | 0.0 | 3.2 | 0.00 | 0.00 | 0.00 | 50 | 1011.9 |
| 20260504202239 | 23 | 314 | 1.6 | 6.4 | 0.00 | 0.00 | 0.00 | 47 | 1012.0 |
| 20260504201736 | 23 | 355 | 1.6 | 3.2 | 0.00 | 0.00 | 0.00 | 47 | 1012.0 |
| 20260504201233 | 23 | 353 | 4.8 | 4.8 | 0.00 | 0.00 | 0.00 | 46 | 1012.1 |
| 20260504200731 | 23 | 14 | 0.0 | 4.8 | 0.00 | 0.00 | 0.00 | 45 | 1012.0 |
| 20260504200226 | 23 | 347 | 0.0 | 4.8 | 0.00 | 0.00 | 0.00 | 47 | 1012.1 |
| 20260504195723 | 23 | 352 | 3.2 | 6.4 | 0.00 | 0.00 | 0.00 | 45 | 1012.2 |
| 20260504195219 | 23 | 269 | 6.4 | 11.3 | 0.00 | 0.00 | 0.00 | 52 | 1012.3 |
| 20260504194716 | 22 | 231 | 12.9 | 14.5 | 0.00 | 0.00 | 0.00 | 48 | 1012.2 |
| 20260504194212 | 23 | 237 | 4.8 | 12.9 | 0.00 | 0.00 | 0.00 | 48 | 1012.0 |
| 20260504193709 | 23 | 48 | 4.8 | 4.8 | 0.00 | 0.00 | 0.00 | 45 | 1012.0 |
| 20260504193206 | 24 | 33 | 3.2 | 4.8 | 0.00 | 0.00 | 0.00 | 44 | 1012.0 |
| 20260504192704 | 23 | 72 | 3.2 | 6.4 | 0.00 | 0.00 | 0.00 | 43 | 1012.1 |
| 20260504192202 | 24 | 105 | 0.0 | 6.4 | 0.00 | 0.00 | 0.00 | 43 | 1012.0 |
| 20260504191701 | 24 | 252 | 6.4 | 6.4 | 0.00 | 0.00 | 0.00 | 47 | 1012.2 |
| 20260504191156 | 23 | 174 | 4.8 | 12.9 | 0.00 | 0.00 | 0.00 | 41 | 1011.9 |
| 20260504190652 | 23 | 252 | 14.5 | 19.3 | 0.00 | 0.00 | 0.00 | 41 | 1011.9 |
| 20260504190148 | 23 | 233 | 9.7 | 14.5 | 0.00 | 0.00 | 0.00 | 46 | 1012.1 |